Time,TemperatureF,DewpointF,PressureIn,WindDirection,WindDirectionDegrees,WindSpeedMPH,WindSpeedGustMPH,Humidity,HourlyPrecipIn,Conditions,Clouds,dailyrainin,SoftwareType,DateUTC
2013-04-08 00:32:00,12.0,7.0,-100.00,ENE,61,4.0,5.0,79,-99.99,,,-99.99,,2013-04-08 08:32:00,
2013-04-08 00:42:00,11.0,6.0,-100.00,NE,54,3.0,5.0,80,-99.99,,,-99.99,,2013-04-08 08:42:00,
2013-04-08 00:52:00,11.0,6.0,-100.00,NE,43,3.0,6.0,81,-99.99,,,-99.99,,2013-04-08 08:52:00,
2013-04-08 01:02:00,11.0,6.0,-100.00,NE,43,3.0,6.0,81,-99.99,,,-99.99,,2013-04-08 09:02:00,
2013-04-08 01:12:00,11.0,7.0,-100.00,NE,53,4.0,8.0,82,-99.99,,,-99.99,,2013-04-08 09:12:00,
2013-04-08 01:22:00,11.0,7.0,-100.00,NE,53,4.0,8.0,82,-99.99,,,-99.99,,2013-04-08 09:22:00,
2013-04-08 01:33:00,11.0,6.0,-100.00,NE,51,4.0,6.0,81,-99.99,,,-99.99,,2013-04-08 09:33:00,
2013-04-08 01:42:00,11.0,6.0,-100.00,NE,51,4.0,6.0,81,-99.99,,,-99.99,,2013-04-08 09:42:00,
2013-04-08 01:52:00,11.0,6.0,-100.00,NE,51,4.0,6.0,81,-99.99,,,-99.99,,2013-04-08 09:52:00,
2013-04-08 02:03:00,11.0,6.0,-100.00,NE,53,4.0,8.0,81,-99.99,,,-99.99,,2013-04-08 10:03:00,
2013-04-08 02:13:00,11.0,6.0,-100.00,NE,53,4.0,8.0,81,-99.99,,,-99.99,,2013-04-08 10:13:00,
2013-04-08 02:21:00,8.0,3.0,-100.00,NE,54,4.0,8.0,81,-99.99,,,-99.99,,2013-04-08 10:21:00,
2013-04-08 02:23:00,10.0,5.0,-100.00,NE,49,4.0,6.0,80,-99.99,,,-99.99,,2013-04-08 10:23:00,
2013-04-08 02:32:00,9.0,5.0,-100.00,NE,54,4.0,6.0,82,-99.99,,,-99.99,,2013-04-08 10:32:00,
2013-04-08 02:42:00,9.0,5.0,-100.00,NE,54,4.0,6.0,82,-99.99,,,-99.99,,2013-04-08 10:42:00,
2013-04-08 02:52:00,8.0,3.0,-100.00,NE,54,4.0,8.0,81,-99.99,,,-99.99,,2013-04-08 10:52:00,
2013-04-08 03:02:00,8.0,3.0,-100.00,NE,54,4.0,8.0,81,-99.99,,,-99.99,,2013-04-08 11:02:00,
2013-04-08 03:12:00,8.0,3.0,-100.00,NE,54,4.0,8.0,81,-99.99,,,-99.99,,2013-04-08 11:12:00,
2013-04-08 03:32:00,9.0,2.0,-100.00,NE,46,2.0,6.0,74,-99.99,,,-99.99,,2013-04-08 11:32:00,
2013-04-08 03:43:00,9.0,2.0,-100.00,NE,46,2.0,6.0,74,-99.99,,,-99.99,,2013-04-08 11:43:00,
2013-04-08 03:52:00,9.0,2.0,-100.00,NE,46,2.0,6.0,74,-99.99,,,-99.99,,2013-04-08 11:52:00,
2013-04-08 04:02:00,8.0,1.0,-100.00,NE,37,2.0,5.0,74,-99.99,,,-99.99,,2013-04-08 12:02:00,
2013-04-08 04:12:00,8.0,1.0,-100.00,NE,37,2.0,5.0,74,-99.99,,,-99.99,,2013-04-08 12:12:00,
2013-04-08 04:21:00,8.0,1.0,-100.00,NNE,13,0.0,3.0,72,-99.99,,,-99.99,,2013-04-08 12:21:00,
2013-04-08 04:22:00,8.0,1.0,-100.00,NE,37,2.0,5.0,74,-99.99,,,-99.99,,2013-04-08 12:22:00,
2013-04-08 04:32:00,9.0,2.0,-100.00,NW,323,0.0,2.0,72,-99.99,,,-99.99,,2013-04-08 12:32:00,
2013-04-08 04:42:00,9.0,2.0,-100.00,NW,323,0.0,2.0,72,-99.99,,,-99.99,,2013-04-08 12:42:00,
2013-04-08 04:52:00,8.0,1.0,-100.00,NNE,13,0.0,3.0,72,-99.99,,,-99.99,,2013-04-08 12:52:00,
2013-04-08 05:02:00,8.0,1.0,-100.00,NNE,13,0.0,3.0,72,-99.99,,,-99.99,,2013-04-08 13:02:00,
2013-04-08 05:12:00,8.0,1.0,-100.00,NNE,13,0.0,3.0,72,-99.99,,,-99.99,,2013-04-08 13:12:00,
2013-04-08 05:32:00,9.0,2.0,-100.00,NE,41,0.0,2.0,71,-99.99,,,-99.99,,2013-04-08 13:32:00,
2013-04-08 05:43:00,9.0,2.0,-100.00,NE,41,0.0,2.0,71,-99.99,,,-99.99,,2013-04-08 13:43:00,
2013-04-08 05:52:00,9.0,1.0,-100.00,ESE,119,0.0,2.0,69,-99.99,,,-99.99,,2013-04-08 13:52:00,
2013-04-08 06:02:00,10.0,2.0,-100.00,ENE,70,0.0,4.0,68,-99.99,,,-99.99,,2013-04-08 14:02:00,
2013-04-08 06:12:00,10.0,2.0,-100.00,ENE,70,0.0,4.0,68,-99.99,,,-99.99,,2013-04-08 14:12:00,
2013-04-08 06:21:00,10.0,5.0,-100.00,NE,38,6.0,16.0,79,-99.99,,,-99.99,,2013-04-08 14:21:00,
2013-04-08 06:22:00,10.0,2.0,-100.00,NE,52,1.0,3.0,69,-99.99,,,-99.99,,2013-04-08 14:22:00,
2013-04-08 06:32:00,10.0,2.0,-100.00,NE,52,1.0,3.0,69,-99.99,,,-99.99,,2013-04-08 14:32:00,
2013-04-08 06:52:00,10.0,5.0,-100.00,NE,38,6.0,16.0,79,-99.99,,,-99.99,,2013-04-08 14:52:00,
2013-04-08 07:02:00,10.0,5.0,-100.00,NE,38,6.0,16.0,79,-99.99,,,-99.99,,2013-04-08 15:02:00,
2013-04-08 07:12:00,10.0,5.0,-100.00,NE,38,6.0,16.0,79,-99.99,,,-99.99,,2013-04-08 15:12:00,
2013-04-08 07:35:00,11.0,7.0,-100.00,NE,46,4.0,11.0,82,-99.99,,,-99.99,,2013-04-08 15:35:00,
2013-04-08 07:43:00,11.0,7.0,-100.00,NE,46,4.0,11.0,82,-99.99,,,-99.99,,2013-04-08 15:43:00,
2013-04-08 07:53:00,11.0,7.0,-100.00,ENE,59,1.0,4.0,83,-99.99,,,-99.99,,2013-04-08 15:53:00,
2013-04-08 08:03:00,11.0,7.0,-100.00,NE,48,2.0,4.0,84,-99.99,,,-99.99,,2013-04-08 16:03:00,
2013-04-08 08:12:00,11.0,7.0,-100.00,NE,48,2.0,4.0,84,-99.99,,,-99.99,,2013-04-08 16:12:00,
2013-04-08 08:21:00,12.0,8.0,-100.00,NE,45,5.0,9.0,84,-99.99,,,-99.99,,2013-04-08 16:21:00,
2013-04-08 08:22:00,11.0,7.0,-100.00,NE,48,2.0,4.0,84,-99.99,,,-99.99,,2013-04-08 16:22:00,
2013-04-08 08:32:00,11.0,7.0,-100.00,NE,48,2.0,4.0,84,-99.99,,,-99.99,,2013-04-08 16:32:00,
2013-04-08 08:42:00,11.0,7.0,-100.00,NNE,33,4.0,10.0,84,-99.99,,,-99.99,,2013-04-08 16:42:00,
2013-04-08 08:53:00,12.0,8.0,-100.00,NE,45,5.0,9.0,84,-99.99,,,-99.99,,2013-04-08 16:53:00,
2013-04-08 09:02:00,12.0,8.0,-100.00,NE,45,5.0,9.0,84,-99.99,,,-99.99,,2013-04-08 17:02:00,
2013-04-08 09:12:00,12.0,8.0,-100.00,NE,45,5.0,9.0,84,-99.99,,,-99.99,,2013-04-08 17:12:00,
2013-04-08 09:32:00,12.0,8.0,-100.00,NE,40,4.0,6.0,84,-99.99,,,-99.99,,2013-04-08 17:32:00,
2013-04-08 09:44:00,12.0,8.0,-100.00,NE,40,4.0,6.0,84,-99.99,,,-99.99,,2013-04-08 17:44:00,
2013-04-08 09:52:00,12.0,8.0,-100.00,NE,40,9.0,14.0,83,-99.99,,,-99.99,,2013-04-08 17:52:00,
2013-04-08 10:02:00,11.0,7.0,-100.00,NE,46,6.0,12.0,83,-99.99,,,-99.99,,2013-04-08 18:02:00,
2013-04-08 10:12:00,11.0,7.0,-100.00,NE,46,6.0,12.0,83,-99.99,,,-99.99,,2013-04-08 18:12:00,
2013-04-08 10:22:00,11.0,7.0,-100.00,NE,46,6.0,12.0,83,-99.99,,,-99.99,,2013-04-08 18:22:00,
2013-04-08 10:32:00,11.0,7.0,-100.00,NE,46,6.0,12.0,83,-99.99,,,-99.99,,2013-04-08 18:32:00,
2013-04-08 11:22:00,10.0,6.0,-100.00,NE,49,10.0,18.0,83,-99.99,,,-99.99,,2013-04-08 19:22:00,
2013-04-08 11:33:00,10.0,6.0,-100.00,NE,49,10.0,18.0,83,-99.99,,,-99.99,,2013-04-08 19:33:00,
2013-04-08 11:42:00,10.0,6.0,-100.00,NE,41,9.0,14.0,83,-99.99,,,-99.99,,2013-04-08 19:42:00,
2013-04-08 11:52:00,10.0,6.0,-100.00,NE,41,9.0,14.0,83,-99.99,,,-99.99,,2013-04-08 19:52:00,
2013-04-08 12:02:00,11.0,7.0,-100.00,NE,50,6.0,14.0,84,-99.99,,,-99.99,,2013-04-08 20:02:00,
2013-04-08 12:12:00,11.0,7.0,-100.00,NE,50,6.0,14.0,84,-99.99,,,-99.99,,2013-04-08 20:12:00,
2013-04-08 12:22:00,12.0,9.0,-100.00,NE,37,4.0,8.0,87,-99.99,,,-99.99,,2013-04-08 20:22:00,
2013-04-08 12:32:00,12.0,9.0,-100.00,NE,37,4.0,8.0,87,-99.99,,,-99.99,,2013-04-08 20:32:00,
2013-04-08 12:42:00,12.0,9.0,-100.00,NE,37,4.0,8.0,87,-99.99,,,-99.99,,2013-04-08 20:42:00,
2013-04-08 12:52:00,15.0,12.0,-100.00,NE,37,4.0,9.0,87,-99.99,,,-99.99,,2013-04-08 20:52:00,
2013-04-08 13:02:00,15.0,12.0,-100.00,NE,34,4.0,8.0,86,-99.99,,,-99.99,,2013-04-08 21:02:00,
2013-04-08 13:12:00,15.0,12.0,-100.00,NE,34,4.0,8.0,86,-99.99,,,-99.99,,2013-04-08 21:12:00,
2013-04-08 13:21:00,19.0,16.0,-100.00,NNE,15,3.0,6.0,89,-99.99,,,-99.99,,2013-04-08 21:21:00,
2013-04-08 13:22:00,15.0,12.0,-100.00,NE,34,4.0,8.0,86,-99.99,,,-99.99,,2013-04-08 21:22:00,
2013-04-08 13:32:00,17.0,14.0,-100.00,North,353,0.0,6.0,87,-99.99,,,-99.99,,2013-04-08 21:32:00,
2013-04-08 13:43:00,17.0,14.0,-100.00,North,353,0.0,6.0,87,-99.99,,,-99.99,,2013-04-08 21:43:00,
2013-04-08 13:53:00,19.0,16.0,-100.00,NNE,15,3.0,6.0,89,-99.99,,,-99.99,,2013-04-08 21:53:00,
2013-04-08 14:02:00,19.0,16.0,-100.00,NNE,15,3.0,6.0,89,-99.99,,,-99.99,,2013-04-08 22:02:00,
2013-04-08 14:12:00,19.0,16.0,-100.00,NNE,15,3.0,6.0,89,-99.99,,,-99.99,,2013-04-08 22:12:00,
2013-04-08 15:02:00,20.0,17.0,-100.00,NNE,19,3.0,5.0,89,-99.99,,,-99.99,,2013-04-08 23:02:00,
2013-04-08 15:12:00,20.0,17.0,-100.00,NNE,19,3.0,5.0,89,-99.99,,,-99.99,,2013-04-08 23:12:00,
2013-04-08 15:22:00,20.0,17.0,-100.00,NNE,19,3.0,5.0,89,-99.99,,,-99.99,,2013-04-08 23:22:00,
2013-04-08 15:32:00,20.0,15.0,-100.00,NNE,31,3.0,9.0,82,-99.99,,,-99.99,,2013-04-08 23:32:00,
2013-04-08 15:42:00,20.0,15.0,-100.00,NNE,31,3.0,9.0,82,-99.99,,,-99.99,,2013-04-08 23:42:00,
2013-04-08 15:52:00,20.0,15.0,-100.00,NNE,31,3.0,9.0,82,-99.99,,,-99.99,,2013-04-08 23:52:00,
2013-04-08 16:02:00,20.0,16.0,-100.00,ENE,58,4.0,9.0,84,-99.99,,,-99.99,,2013-04-09 00:02:00,
2013-04-08 16:12:00,20.0,16.0,-100.00,ENE,58,4.0,9.0,84,-99.99,,,-99.99,,2013-04-09 00:12:00,
2013-04-08 16:22:00,18.0,14.0,-100.00,NE,56,3.0,6.0,84,-99.99,,,-99.99,,2013-04-09 00:22:00,
2013-04-08 16:32:00,18.0,15.0,-100.00,NNE,24,2.0,6.0,86,-99.99,,,-99.99,,2013-04-09 00:32:00,
2013-04-08 16:42:00,18.0,15.0,-100.00,NNE,24,2.0,6.0,86,-99.99,,,-99.99,,2013-04-09 00:42:00,
2013-04-08 16:52:00,19.0,16.0,-100.00,NNE,23,2.0,5.0,87,-99.99,,,-99.99,,2013-04-09 00:52:00,
2013-04-08 17:02:00,19.0,16.0,-100.00,NE,35,2.0,5.0,86,-99.99,,,-99.99,,2013-04-09 01:02:00,
2013-04-08 17:12:00,19.0,16.0,-100.00,NE,35,2.0,5.0,86,-99.99,,,-99.99,,2013-04-09 01:12:00,
2013-04-08 17:22:00,18.0,14.0,-100.00,NE,52,3.0,5.0,85,-99.99,,,-99.99,,2013-04-09 01:22:00,
2013-04-08 17:32:00,17.0,13.0,-100.00,NE,47,3.0,5.0,85,-99.99,,,-99.99,,2013-04-09 01:32:00,
2013-04-08 17:42:00,15.0,12.0,-100.00,NE,41,3.0,6.0,86,-99.99,,,-99.99,,2013-04-09 01:42:00,
2013-04-08 17:52:00,15.0,12.0,-100.00,NE,41,3.0,6.0,86,-99.99,,,-99.99,,2013-04-09 01:52:00,
2013-04-08 18:02:00,15.0,12.0,-100.00,NE,41,3.0,6.0,86,-99.99,,,-99.99,,2013-04-09 02:02:00,
2013-04-08 18:12:00,15.0,12.0,-100.00,NE,41,3.0,6.0,86,-99.99,,,-99.99,,2013-04-09 02:12:00,
2013-04-08 18:22:00,14.0,11.0,-100.00,NE,34,4.0,9.0,86,-99.99,,,-99.99,,2013-04-09 02:22:00,
2013-04-08 18:32:00,14.0,11.0,-100.00,NNE,31,5.0,10.0,86,-99.99,,,-99.99,,2013-04-09 02:32:00,
2013-04-08 18:42:00,14.0,11.0,-100.00,NNE,31,5.0,10.0,86,-99.99,,,-99.99,,2013-04-09 02:42:00,
2013-04-08 18:52:00,14.0,11.0,-100.00,NNE,23,4.0,10.0,86,-99.99,,,-99.99,,2013-04-09 02:52:00,
2013-04-08 19:02:00,14.0,11.0,-100.00,NNE,23,4.0,10.0,86,-99.99,,,-99.99,,2013-04-09 03:02:00,
2013-04-08 19:12:00,14.0,11.0,-100.00,NNE,23,4.0,10.0,86,-99.99,,,-99.99,,2013-04-09 03:12:00,
2013-04-08 19:21:00,14.0,11.0,-100.00,NNE,20,3.0,9.0,87,-99.99,,,-99.99,,2013-04-09 03:21:00,
2013-04-08 19:32:00,14.0,11.0,-100.00,NNE,20,3.0,9.0,87,-99.99,,,-99.99,,2013-04-09 03:32:00,
2013-04-08 19:43:00,14.0,11.0,-100.00,NNE,20,3.0,9.0,87,-99.99,,,-99.99,,2013-04-09 03:43:00,
2013-04-08 19:51:00,13.0,10.0,-100.00,NNE,27,6.0,11.0,87,-99.99,,,-99.99,,2013-04-09 03:51:00,
2013-04-08 19:52:00,14.0,11.0,-100.00,NNE,33,4.0,10.0,87,-99.99,,,-99.99,,2013-04-09 03:52:00,
2013-04-08 20:02:00,13.0,10.0,-100.00,NNE,27,5.0,11.0,87,-99.99,,,-99.99,,2013-04-09 04:02:00,
2013-04-08 20:12:00,13.0,10.0,-100.00,NNE,27,5.0,11.0,87,-99.99,,,-99.99,,2013-04-09 04:12:00,
2013-04-08 20:22:00,13.0,10.0,-100.00,NNE,27,6.0,11.0,87,-99.99,,,-99.99,,2013-04-09 04:22:00,
2013-04-08 20:32:00,13.0,10.0,-100.00,NNE,27,6.0,11.0,87,-99.99,,,-99.99,,2013-04-09 04:32:00,
2013-04-08 20:42:00,13.0,10.0,-100.00,NNE,27,6.0,11.0,87,-99.99,,,-99.99,,2013-04-09 04:42:00,
2013-04-08 21:02:00,12.0,9.0,-100.00,NNE,17,4.0,10.0,87,-99.99,,,-99.99,,2013-04-09 05:02:00,
2013-04-08 21:12:00,12.0,9.0,-100.00,NNE,17,4.0,10.0,87,-99.99,,,-99.99,,2013-04-09 05:12:00,
2013-04-08 21:22:00,12.0,9.0,-100.00,NNE,17,4.0,10.0,87,-99.99,,,-99.99,,2013-04-09 05:22:00,
2013-04-08 21:32:00,12.0,9.0,-100.00,NNE,14,5.0,12.0,87,-99.99,,,-99.99,,2013-04-09 05:32:00,
2013-04-08 21:43:00,12.0,9.0,-100.00,NNE,14,5.0,12.0,87,-99.99,,,-99.99,,2013-04-09 05:43:00,
2013-04-08 21:52:00,12.0,9.0,-100.00,NNE,14,5.0,12.0,87,-99.99,,,-99.99,,2013-04-09 05:52:00,
2013-04-08 22:02:00,12.0,9.0,-100.00,NNE,14,5.0,12.0,87,-99.99,,,-99.99,,2013-04-09 06:02:00,
2013-04-08 23:02:00,11.0,8.0,-100.00,North,2,2.0,8.0,87,-99.99,,,-99.99,,2013-04-09 07:02:00,
2013-04-08 23:12:00,11.0,8.0,-100.00,North,2,2.0,8.0,87,-99.99,,,-99.99,,2013-04-09 07:12:00,
2013-04-08 23:22:00,11.0,8.0,-100.00,North,2,2.0,8.0,87,-99.99,,,-99.99,,2013-04-09 07:22:00,
2013-04-08 23:32:00,11.0,8.0,-100.00,North,357,2.0,6.0,87,-99.99,,,-99.99,,2013-04-09 07:32:00,
2013-04-08 23:42:00,11.0,8.0,-100.00,North,357,2.0,6.0,87,-99.99,,,-99.99,,2013-04-09 07:42:00,
2013-04-08 23:52:00,11.0,8.0,-100.00,North,357,2.0,6.0,87,-99.99,,,-99.99,,2013-04-09 07:52:00,